Weather History for KMDW - June, 2014

Change the Weather History Date:

Friday, June 27, 2014

  Actual Average Record
Temperature  
Mean Temperature 77 °F 75 °F  
Max Temperature 91 °F 83 °F 102 °F (1933)
Min Temperature 62 °F 66 °F 50 °F (1981)
Degree Days  
Heating Degree Days 0 0  
Month to date heating degree days 2 29  
Since 1 June heating degree days 2 29  
Since 1 July heating degree days 6809 5988  
Cooling Degree Days 12 10  
Month to date cooling degree days 206 176  
Year to date cooling degree days 317 250  
Since 1 June cooling degree days 206 176  
Growing Degree Days 26 (Base 50)    
Moisture  
Dew Point 65 °F    
Average Humidity 68    
Maximum Humidity 94    
Minimum Humidity 33    
Precipitation  
Precipitation 0.00 in 0.12 in 2.88 in (1983)
Month to date precipitation 5.46 3.72  
Year to date precipitation 16.75 18.21  
Sea Level Pressure  
Sea Level Pressure 29.99 in    
Wind  
Wind Speed 9 mph (SE)    
Max Wind Speed 17 mph    
Max Gust Speed 26 mph    
Visibility 7 miles    
Events      
T = Trace of Precipitation, MM = Missing Value Source: NWS Daily Summary

Daily Weather History Graph

Daily Weather History Graph

Search for Another Location

Airport or City:

Trip Planner

Search our weather history database for the weather conditions in past years. The results will help you decide how hot, cold, wet, or windy it might be!

Date:

Astronomy

Jun. 27, 2014 Rise Set
Actual Time 5:18 AM CDT 8:29 PM CDT
Civil Twilight 4:43 AM CDT 9:04 PM CDT
Nautical Twilight 3:59 AM CDT 9:48 PM CDT
Astronomical Twilight 3:06 AM CDT 10:40 PM CDT
Moon 5:49 AM CDT (6/27) 8:33 PM CDT (6/27)
Length of Visible Light 16h 20m
Length of Day
15h 11m
New Moon, 0% of the Moon is Illuminated
Jun 27
New Moon
Jul 5
First Quarter
Jul 12
Full
Jul 18
Last Quarter
Jul 26
New

Hourly Weather History & Observations

Time (CDT) Temp. Heat Index Dew Point Humidity Pressure Visibility Wind Dir Wind Speed Gust Speed Precip Events Conditions
12:51 AM 62.1 °F - 60.1 °F 93% 30.03 in 1.5 mi East 10.4 mph - N/A   Overcast
1:51 AM 62.1 °F - 60.1 °F 93% 30.02 in 1.2 mi East 6.9 mph - N/A   Overcast
2:51 AM 63.0 °F - 61.0 °F 93% 30.03 in 1.2 mi East 5.8 mph - N/A   Overcast
3:51 AM 64.0 °F - 62.1 °F 93% 30.02 in 1.0 mi ENE 4.6 mph - N/A   Overcast
4:51 AM 64.0 °F - 62.1 °F 93% 30.01 in 1.0 mi East 5.8 mph - N/A   Overcast
5:51 AM 64.4 °F - 62.6 °F 94% 30.04 in 1.0 mi East 6.9 mph - N/A   Overcast
6:51 AM 64.9 °F - 63.0 °F 93% 30.02 in 1.2 mi ENE 4.6 mph - N/A   Overcast
7:16 AM 66.0 °F - 64.0 °F 93% 30.05 in 2.5 mi East 4.6 mph - N/A   Overcast
7:32 AM 66.9 °F - 64.0 °F 90% 30.05 in 2.5 mi East 5.8 mph - N/A   Scattered Clouds
7:40 AM 68.0 °F - 64.0 °F 87% 30.05 in 3.0 mi ESE 6.9 mph - N/A   Scattered Clouds
7:51 AM 69.1 °F - 64.0 °F 84% 30.03 in 6.0 mi ENE 4.6 mph - N/A   Haze
8:51 AM 75.0 °F - 66.0 °F 73% 30.03 in 10.0 mi SE 6.9 mph - N/A   Partly Cloudy
9:51 AM 80.1 °F 82.3 °F 66.9 °F 64% 30.01 in 10.0 mi ESE 8.1 mph - N/A   Partly Cloudy
10:51 AM 84.9 °F 87.6 °F 66.9 °F 55% 30.00 in 10.0 mi SSE 13.8 mph - N/A   Partly Cloudy
11:51 AM 87.1 °F 89.2 °F 66.0 °F 49% 29.99 in 10.0 mi South 10.4 mph 20.7 mph N/A   Scattered Clouds
12:51 PM 87.8 °F 90.4 °F 66.2 °F 49% 30.01 in 10.0 mi South 11.5 mph 19.6 mph N/A   Mostly Cloudy
1:51 PM 89.6 °F 91.1 °F 64.4 °F 43% 30.00 in 10.0 mi SSW 9.2 mph 21.9 mph N/A   Scattered Clouds
2:51 PM 89.1 °F 91.0 °F 64.9 °F 45% 29.95 in 10.0 mi South 13.8 mph 20.7 mph N/A   Mostly Cloudy
3:51 PM 89.1 °F 90.3 °F 64.0 °F 43% 29.95 in 10.0 mi South 15.0 mph - N/A   Mostly Cloudy
4:51 PM 90.0 °F 91.7 °F 64.9 °F 43% 29.94 in 10.0 mi South 13.8 mph 21.9 mph N/A   Mostly Cloudy
5:51 PM 89.1 °F 90.3 °F 64.0 °F 43% 29.93 in 10.0 mi South 15.0 mph 23.0 mph N/A   Mostly Cloudy
6:51 PM 88.0 °F 89.6 °F 64.9 °F 46% 29.94 in 10.0 mi South 12.7 mph - N/A   Mostly Cloudy
7:51 PM 86.0 °F 88.2 °F 66.0 °F 51% 29.94 in 10.0 mi South 9.2 mph - N/A   Mostly Cloudy
8:51 PM 84.9 °F 88.2 °F 68.0 °F 57% 29.94 in 10.0 mi SSE 8.1 mph - N/A   Mostly Cloudy
9:51 PM 82.9 °F 85.8 °F 68.0 °F 60% 29.96 in 10.0 mi SSE 8.1 mph - N/A   Scattered Clouds
10:51 PM 81.0 °F 83.8 °F 68.0 °F 65% 29.95 in 10.0 mi SSE 6.9 mph - N/A   Partly Cloudy
11:51 PM 80.1 °F 82.9 °F 69.1 °F 69% 29.96 in 10.0 mi SSE 8.1 mph - N/A   Partly Cloudy